Location: Roland
(31.1349°N, 85.4372°W)
Time: 05:07:58
(UTC+00:00)

Courier 1B - Pass Details

Date: 20 April 2021
Orbit: 962 x 1209 km, 28.3° (Epoch: 07 May)

Event Time Altitude Azimuth Distance (km) Brightness Sun altitude
Rises 01:27:19 0° 259° (W) 3,694 11.5 -15.8°
Reaches altitude 10° 01:32:33 10° 225° (SW) 2,797 10.1 -16.8°
Maximum altitude 01:34:10 11° 210° (SSW) 2,750 9.9 -17.1°
Drops below altitude 10° 01:35:49 10° 196° (SSW) 2,836 9.8 -17.5°
Enters shadow 01:39:13 - 173° (S) 3,372 10.0 -18.1°
Sets 01:41:18 0° 162° (SSE) 3,861 - -18.5°
